Time,TemperatureF,DewpointF,PressureIn,WindDirection,WindDirectionDegrees,WindSpeedMPH,WindSpeedGustMPH,Humidity,HourlyPrecipIn,Conditions,Clouds,dailyrainin,SoftwareType,DateUTC
2013-10-25 00:00:00,38.0,33.9,30.21,SSW,209,1.0,14.0,85,0.00,,,0.00,Wunderground v.1.13,2013-10-25 06:00:00,
2013-10-25 00:05:00,37.9,33.8,30.20,SSW,193,1.0,1.0,85,0.00,,,0.00,Wunderground v.1.13,2013-10-25 06:05:00,
2013-10-25 00:15:00,37.8,33.7,30.20,SSW,192,1.0,1.0,85,0.00,,,0.00,Wunderground v.1.13,2013-10-25 06:15:00,
2013-10-25 00:20:00,37.8,34.0,30.20,South,190,1.0,1.0,86,0.00,,,0.00,Wunderground v.1.13,2013-10-25 06:20:00,
2013-10-25 00:25:00,37.8,33.7,30.20,South,181,1.0,1.0,85,0.00,,,0.00,Wunderground v.1.13,2013-10-25 06:25:00,
2013-10-25 00:30:00,37.6,33.5,30.20,SSW,192,0.0,14.0,85,0.00,,,0.00,Wunderground v.1.13,2013-10-25 06:30:00,
2013-10-25 00:35:00,38.0,33.9,30.20,South,184,1.0,1.0,85,0.00,,,0.00,Wunderground v.1.13,2013-10-25 06:35:00,
2013-10-25 00:40:00,37.9,33.8,30.20,South,184,1.0,1.0,85,0.00,,,0.00,Wunderground v.1.13,2013-10-25 06:40:00,
2013-10-25 00:45:00,37.8,33.7,30.20,South,188,0.0,14.0,85,0.00,,,0.00,Wunderground v.1.13,2013-10-25 06:45:00,
2013-10-25 00:50:00,37.8,33.7,30.20,SSW,204,1.0,1.0,85,0.00,,,0.00,Wunderground v.1.13,2013-10-25 06:50:00,
2013-10-25 00:55:00,38.0,33.9,30.20,SSW,196,1.0,14.0,85,0.00,,,0.00,Wunderground v.1.13,2013-10-25 06:55:00,
2013-10-25 01:00:00,38.3,33.9,30.20,South,181,2.0,2.0,84,0.00,,,0.00,Wunderground v.1.13,2013-10-25 07:00:00,
2013-10-25 01:05:00,38.2,33.8,30.20,SSW,205,2.0,2.0,84,0.00,,,0.00,Wunderground v.1.13,2013-10-25 07:05:00,
2013-10-25 01:10:00,38.0,33.6,30.20,NNW,329,1.0,1.0,84,0.00,,,0.00,Wunderground v.1.13,2013-10-25 07:10:00,
2013-10-25 01:15:00,37.9,33.5,30.20,South,186,1.0,1.0,84,0.00,,,0.00,Wunderground v.1.13,2013-10-25 07:15:00,
2013-10-25 01:20:00,37.8,33.4,30.20,SW,215,1.0,1.0,84,0.00,,,0.00,Wunderground v.1.13,2013-10-25 07:20:00,
2013-10-25 01:25:00,37.8,33.4,30.20,WSW,258,0.0,14.0,84,0.00,,,0.00,Wunderground v.1.13,2013-10-25 07:25:00,
2013-10-25 01:30:00,37.8,33.4,30.20,SSW,203,3.0,14.0,84,0.00,,,0.00,Wunderground v.1.13,2013-10-25 07:30:00,
2013-10-25 01:35:00,37.8,33.7,30.20,West,278,4.0,14.0,85,0.00,,,0.00,Wunderground v.1.13,2013-10-25 07:35:00,
2013-10-25 01:40:00,37.9,33.8,30.20,SW,214,2.0,2.0,85,0.00,,,0.00,Wunderground v.1.13,2013-10-25 07:40:00,
2013-10-25 01:45:00,37.8,33.4,30.20,West,267,0.0,14.0,84,0.00,,,0.00,Wunderground v.1.13,2013-10-25 07:45:00,
2013-10-25 01:50:00,37.5,33.1,30.20,West,267,0.0,14.0,84,0.00,,,0.00,Wunderground v.1.13,2013-10-25 07:50:00,
2013-10-25 01:55:00,37.2,33.1,30.20,SW,232,0.0,14.0,85,0.00,,,0.00,Wunderground v.1.13,2013-10-25 07:55:00,
2013-10-25 02:00:00,37.0,32.9,30.20,WSW,256,0.0,14.0,85,0.00,,,0.00,Wunderground v.1.13,2013-10-25 08:00:00,
2013-10-25 02:05:00,36.9,32.8,30.20,WSW,257,0.0,14.0,85,0.00,,,0.00,Wunderground v.1.13,2013-10-25 08:05:00,
2013-10-25 02:10:00,36.9,33.1,30.20,WSW,256,0.0,14.0,86,0.00,,,0.00,Wunderground v.1.13,2013-10-25 08:10:00,
2013-10-25 02:15:00,36.9,33.1,30.20,WSW,256,0.0,14.0,86,0.00,,,0.00,Wunderground v.1.13,2013-10-25 08:15:00,
2013-10-25 02:20:00,36.9,33.1,30.20,WSW,241,0.0,14.0,86,0.00,,,0.00,Wunderground v.1.13,2013-10-25 08:20:00,
2013-10-25 02:25:00,36.8,33.0,30.20,WSW,244,0.0,14.0,86,0.00,,,0.00,Wunderground v.1.13,2013-10-25 08:25:00,
2013-10-25 02:35:00,36.8,33.0,30.19,SW,221,0.0,14.0,86,0.00,,,0.00,Wunderground v.1.13,2013-10-25 08:35:00,
2013-10-25 02:40:00,36.8,33.0,30.19,SW,222,0.0,14.0,86,0.00,,,0.00,Wunderground v.1.13,2013-10-25 08:40:00,
2013-10-25 02:45:00,36.6,32.8,30.19,SW,222,0.0,14.0,86,0.00,,,0.00,Wunderground v.1.13,2013-10-25 08:45:00,
2013-10-25 02:50:00,36.5,32.7,30.19,SW,222,0.0,14.0,86,0.00,,,0.00,Wunderground v.1.13,2013-10-25 08:50:00,
2013-10-25 02:55:00,36.3,32.5,30.19,SW,222,0.0,14.0,86,0.00,,,0.00,Wunderground v.1.13,2013-10-25 08:55:00,
2013-10-25 03:00:00,36.2,32.4,30.19,SW,222,0.0,14.0,86,0.00,,,0.00,Wunderground v.1.13,2013-10-25 09:00:00,
2013-10-25 03:05:00,36.0,32.2,30.18,SW,222,0.0,14.0,86,0.00,,,0.00,Wunderground v.1.13,2013-10-25 09:05:00,
2013-10-25 03:10:00,35.9,32.4,30.18,SW,222,0.0,14.0,87,0.00,,,0.00,Wunderground v.1.13,2013-10-25 09:10:00,
2013-10-25 03:15:00,35.9,32.4,30.18,SW,222,0.0,14.0,87,0.00,,,0.00,Wunderground v.1.13,2013-10-25 09:15:00,
2013-10-25 03:20:00,35.8,32.3,30.18,SW,222,0.0,14.0,87,0.00,,,0.00,Wunderground v.1.13,2013-10-25 09:20:00,
2013-10-25 03:25:00,35.6,32.1,30.18,SW,222,0.0,14.0,87,0.00,,,0.00,Wunderground v.1.13,2013-10-25 09:25:00,
2013-10-25 03:30:00,35.5,32.0,30.18,SW,222,0.0,14.0,87,0.00,,,0.00,Wunderground v.1.13,2013-10-25 09:30:00,
2013-10-25 03:35:00,35.2,31.7,30.18,SW,222,0.0,14.0,87,0.00,,,0.00,Wunderground v.1.13,2013-10-25 09:35:00,
2013-10-25 03:40:00,34.9,31.7,30.18,SW,222,0.0,14.0,88,0.00,,,0.00,Wunderground v.1.13,2013-10-25 09:40:00,
2013-10-25 03:45:00,34.9,31.7,30.18,SW,222,0.0,14.0,88,0.00,,,0.00,Wunderground v.1.13,2013-10-25 09:45:00,
2013-10-25 03:55:00,34.9,31.7,30.17,SW,222,0.0,14.0,88,0.00,,,0.00,Wunderground v.1.13,2013-10-25 09:55:00,
2013-10-25 04:00:00,34.9,31.7,30.17,SW,222,0.0,14.0,88,0.00,,,0.00,Wunderground v.1.13,2013-10-25 10:00:00,
2013-10-25 04:05:00,34.7,31.5,30.17,SW,222,0.0,14.0,88,0.00,,,0.00,Wunderground v.1.13,2013-10-25 10:05:00,
2013-10-25 04:10:00,34.6,31.4,30.17,SW,222,0.0,14.0,88,0.00,,,0.00,Wunderground v.1.13,2013-10-25 10:10:00,
2013-10-25 04:15:00,34.3,31.1,30.17,SW,222,0.0,14.0,88,0.00,,,0.00,Wunderground v.1.13,2013-10-25 10:15:00,
2013-10-25 04:20:00,34.0,30.8,30.17,SW,222,0.0,14.0,88,0.00,,,0.00,Wunderground v.1.13,2013-10-25 10:20:00,
2013-10-25 04:25:00,33.7,30.8,30.17,SW,222,0.0,14.0,89,0.00,,,0.00,Wunderground v.1.13,2013-10-25 10:25:00,
2013-10-25 04:30:00,33.5,30.6,30.17,SW,222,0.0,14.0,89,0.00,,,0.00,Wunderground v.1.13,2013-10-25 10:30:00,
2013-10-25 04:35:00,33.2,30.3,30.17,SW,222,0.0,14.0,89,0.00,,,0.00,Wunderground v.1.13,2013-10-25 10:35:00,
2013-10-25 04:40:00,33.1,30.5,30.17,SW,222,0.0,14.0,90,0.00,,,0.00,Wunderground v.1.13,2013-10-25 10:40:00,
2013-10-25 04:45:00,33.4,30.8,30.17,SW,222,0.0,14.0,90,0.00,,,0.00,Wunderground v.1.13,2013-10-25 10:45:00,
2013-10-25 04:50:00,33.5,30.9,30.17,SW,222,0.0,14.0,90,0.00,,,0.00,Wunderground v.1.13,2013-10-25 10:50:00,
2013-10-25 04:55:00,34.0,31.4,30.17,SW,222,0.0,14.0,90,0.00,,,0.00,Wunderground v.1.13,2013-10-25 10:55:00,
2013-10-25 05:00:00,34.1,31.5,30.17,SW,222,0.0,14.0,90,0.00,,,0.00,Wunderground v.1.13,2013-10-25 11:00:00,
2013-10-25 05:05:00,34.1,31.5,30.16,SW,222,0.0,14.0,90,0.00,,,0.00,Wunderground v.1.13,2013-10-25 11:05:00,
2013-10-25 05:10:00,34.1,31.5,30.16,SW,222,0.0,14.0,90,0.00,,,0.00,Wunderground v.1.13,2013-10-25 11:10:00,
2013-10-25 05:15:00,34.0,31.4,30.16,SW,222,0.0,14.0,90,0.00,,,0.00,Wunderground v.1.13,2013-10-25 11:15:00,
2013-10-25 05:25:00,33.8,31.2,30.16,SW,222,0.0,14.0,90,0.00,,,0.00,Wunderground v.1.13,2013-10-25 11:25:00,
2013-10-25 05:30:00,33.5,30.9,30.16,SW,222,0.0,14.0,90,0.00,,,0.00,Wunderground v.1.13,2013-10-25 11:30:00,
2013-10-25 05:35:00,33.2,30.6,30.16,SW,222,0.0,14.0,90,0.00,,,0.00,Wunderground v.1.13,2013-10-25 11:35:00,
2013-10-25 05:40:00,32.8,30.2,30.16,SW,222,0.0,14.0,90,0.00,,,0.00,Wunderground v.1.13,2013-10-25 11:40:00,
2013-10-25 05:45:00,32.5,29.9,30.16,SW,222,0.0,14.0,90,0.00,,,0.00,Wunderground v.1.13,2013-10-25 11:45:00,
2013-10-25 05:50:00,32.2,29.6,30.15,SW,222,0.0,14.0,90,0.00,,,0.00,Wunderground v.1.13,2013-10-25 11:50:00,
2013-10-25 05:55:00,31.9,29.6,30.15,SW,222,0.0,14.0,91,0.00,,,0.00,Wunderground v.1.13,2013-10-25 11:55:00,
2013-10-25 06:00:00,31.8,29.5,30.15,SW,222,0.0,14.0,91,0.00,,,0.00,Wunderground v.1.13,2013-10-25 12:00:00,
2013-10-25 06:05:00,31.6,29.3,30.15,SW,222,0.0,14.0,91,0.00,,,0.00,Wunderground v.1.13,2013-10-25 12:05:00,
2013-10-25 06:10:00,31.5,29.2,30.15,SW,222,0.0,14.0,91,0.00,,,0.00,Wunderground v.1.13,2013-10-25 12:10:00,
2013-10-25 06:15:00,31.3,29.0,30.15,SW,222,0.0,14.0,91,0.00,,,0.00,Wunderground v.1.13,2013-10-25 12:15:00,
2013-10-25 06:20:00,31.2,28.9,30.15,SW,222,0.0,14.0,91,0.00,,,0.00,Wunderground v.1.13,2013-10-25 12:20:00,
2013-10-25 06:25:00,31.0,28.7,30.15,SW,222,0.0,14.0,91,0.00,,,0.00,Wunderground v.1.13,2013-10-25 12:25:00,
2013-10-25 06:30:00,30.9,28.6,30.15,SW,222,0.0,14.0,91,0.00,,,0.00,Wunderground v.1.13,2013-10-25 12:30:00,
2013-10-25 06:35:00,30.7,28.4,30.15,SW,222,0.0,14.0,91,0.00,,,0.00,Wunderground v.1.13,2013-10-25 12:35:00,
2013-10-25 06:40:00,30.6,28.6,30.15,SW,222,0.0,14.0,92,0.00,,,0.00,Wunderground v.1.13,2013-10-25 12:40:00,
2013-10-25 06:45:00,30.4,28.4,30.15,SW,222,0.0,14.0,92,0.00,,,0.00,Wunderground v.1.13,2013-10-25 12:45:00,
2013-10-25 06:50:00,30.3,28.3,30.14,SW,222,0.0,14.0,92,0.00,,,0.00,Wunderground v.1.13,2013-10-25 12:50:00,
2013-10-25 06:55:00,30.1,28.1,30.14,SW,222,0.0,14.0,92,0.00,,,0.00,Wunderground v.1.13,2013-10-25 12:55:00,
2013-10-25 07:00:00,30.3,28.3,30.14,SW,222,0.0,14.0,92,0.00,,,0.00,Wunderground v.1.13,2013-10-25 13:00:00,
2013-10-25 07:05:00,30.3,28.3,30.13,SW,222,0.0,14.0,92,0.00,,,0.00,Wunderground v.1.13,2013-10-25 13:05:00,
2013-10-25 07:10:00,30.1,28.1,30.13,SW,222,0.0,14.0,92,0.00,,,0.00,Wunderground v.1.13,2013-10-25 13:10:00,
2013-10-25 07:15:00,30.1,28.1,30.13,SW,222,0.0,14.0,92,0.00,,,0.00,Wunderground v.1.13,2013-10-25 13:15:00,
2013-10-25 07:20:00,30.3,28.3,30.13,SW,223,0.0,14.0,92,0.00,,,0.00,Wunderground v.1.13,2013-10-25 13:20:00,
2013-10-25 07:25:00,30.4,28.4,30.13,SW,222,0.0,14.0,92,0.00,,,0.00,Wunderground v.1.13,2013-10-25 13:25:00,
2013-10-25 07:30:00,30.4,28.4,30.13,SW,222,0.0,14.0,92,0.00,,,0.00,Wunderground v.1.13,2013-10-25 13:30:00,
2013-10-25 07:35:00,30.7,28.9,30.14,SW,222,0.0,14.0,93,0.00,,,0.00,Wunderground v.1.13,2013-10-25 13:35:00,
2013-10-25 07:40:00,31.2,29.4,30.14,SW,222,0.0,14.0,93,0.00,,,0.00,Wunderground v.1.13,2013-10-25 13:40:00,
2013-10-25 07:45:00,31.6,29.8,30.14,SW,222,0.0,14.0,93,0.00,,,0.00,Wunderground v.1.13,2013-10-25 13:45:00,
2013-10-25 07:50:00,31.8,30.0,30.13,SW,222,0.0,14.0,93,0.00,,,0.00,Wunderground v.1.13,2013-10-25 13:50:00,
2013-10-25 07:55:00,32.1,30.3,30.13,SW,222,0.0,14.0,93,0.00,,,0.00,Wunderground v.1.13,2013-10-25 13:55:00,
2013-10-25 08:05:00,32.9,31.4,30.14,SW,222,0.0,14.0,94,0.00,,,0.00,Wunderground v.1.13,2013-10-25 14:05:00,
2013-10-25 08:10:00,33.4,31.9,30.14,SW,222,0.0,14.0,94,0.00,,,0.00,Wunderground v.1.13,2013-10-25 14:10:00,
2013-10-25 08:15:00,34.0,32.5,30.14,SW,222,0.0,14.0,94,0.00,,,0.00,Wunderground v.1.13,2013-10-25 14:15:00,
2013-10-25 08:20:00,34.6,33.1,30.14,SW,222,0.0,14.0,94,0.00,,,0.00,Wunderground v.1.13,2013-10-25 14:20:00,
2013-10-25 08:25:00,35.0,33.2,30.14,SW,222,0.0,14.0,93,0.00,,,0.00,Wunderground v.1.13,2013-10-25 14:25:00,
2013-10-25 08:30:00,35.6,33.8,30.14,SW,222,0.0,14.0,93,0.00,,,0.00,Wunderground v.1.13,2013-10-25 14:30:00,
2013-10-25 08:35:00,36.5,34.7,30.14,SW,222,0.0,14.0,93,0.00,,,0.00,Wunderground v.1.13,2013-10-25 14:35:00,
2013-10-25 08:40:00,37.5,35.7,30.14,SW,222,0.0,14.0,93,0.00,,,0.00,Wunderground v.1.13,2013-10-25 14:40:00,
2013-10-25 08:45:00,38.3,35.9,30.14,SW,222,0.0,14.0,91,0.00,,,0.00,Wunderground v.1.13,2013-10-25 14:45:00,
2013-10-25 08:50:00,38.6,35.6,30.13,SW,223,0.0,14.0,89,0.00,,,0.00,Wunderground v.1.13,2013-10-25 14:50:00,
2013-10-25 08:55:00,39.1,35.6,30.13,SW,224,1.0,1.0,87,0.00,,,0.00,Wunderground v.1.13,2013-10-25 14:55:00,
2013-10-25 09:00:00,39.5,35.7,30.13,South,187,1.0,14.0,86,0.00,,,0.00,Wunderground v.1.13,2013-10-25 15:00:00,
2013-10-25 09:05:00,40.2,35.8,30.13,SSW,196,2.0,2.0,84,0.00,,,0.00,Wunderground v.1.13,2013-10-25 15:05:00,
2013-10-25 09:10:00,40.6,35.5,30.13,SW,236,3.0,14.0,82,0.00,,,0.00,Wunderground v.1.13,2013-10-25 15:10:00,
2013-10-25 09:15:00,41.2,35.5,30.13,SSW,205,4.0,14.0,80,0.00,,,0.00,Wunderground v.1.13,2013-10-25 15:15:00,
2013-10-25 09:20:00,41.6,35.6,30.12,WSW,239,5.0,5.0,79,0.00,,,0.00,Wunderground v.1.13,2013-10-25 15:20:00,
2013-10-25 09:25:00,42.1,35.7,30.12,SSW,209,4.0,14.0,78,0.00,,,0.00,Wunderground v.1.13,2013-10-25 15:25:00,
2013-10-25 09:30:00,42.1,35.1,30.12,South,190,5.0,14.0,76,0.00,,,0.00,Wunderground v.1.13,2013-10-25 15:30:00,
2013-10-25 09:35:00,42.3,35.3,30.12,South,190,6.0,14.0,76,0.00,,,0.00,Wunderground v.1.13,2013-10-25 15:35:00,
2013-10-25 09:40:00,42.6,35.2,30.12,SSW,207,6.0,6.0,75,0.00,,,0.00,Wunderground v.1.13,2013-10-25 15:40:00,
2013-10-25 09:45:00,43.1,35.4,30.12,SSW,199,6.0,6.0,74,0.00,,,0.00,Wunderground v.1.13,2013-10-25 15:45:00,
2013-10-25 09:50:00,43.5,35.8,30.12,WSW,244,4.0,4.0,74,0.00,,,0.00,Wunderground v.1.13,2013-10-25 15:50:00,
2013-10-25 09:55:00,43.9,35.8,30.12,WSW,244,2.0,2.0,73,0.00,,,0.00,Wunderground v.1.13,2013-10-25 15:55:00,
2013-10-25 10:00:00,44.5,36.0,30.12,SW,220,3.0,14.0,72,0.00,,,0.00,Wunderground v.1.13,2013-10-25 16:00:00,
2013-10-25 10:05:00,44.5,35.7,30.11,SSW,211,5.0,14.0,71,0.00,,,0.00,Wunderground v.1.13,2013-10-25 16:05:00,
2013-10-25 10:15:00,45.1,35.9,30.11,SSW,202,5.0,5.0,70,0.00,,,0.00,Wunderground v.1.13,2013-10-25 16:15:00,
2013-10-25 10:20:00,45.8,36.6,30.10,SW,219,4.0,14.0,70,0.00,,,0.00,Wunderground v.1.13,2013-10-25 16:20:00,
2013-10-25 10:25:00,46.4,36.8,30.10,SSW,205,2.0,2.0,69,0.00,,,0.00,Wunderground v.1.13,2013-10-25 16:25:00,
2013-10-25 10:30:00,46.8,36.8,30.10,SW,216,3.0,3.0,68,0.00,,,0.00,Wunderground v.1.13,2013-10-25 16:30:00,
2013-10-25 10:35:00,47.0,36.6,30.10,South,186,3.0,14.0,67,0.00,,,0.00,Wunderground v.1.13,2013-10-25 16:35:00,
2013-10-25 10:40:00,47.1,36.7,30.10,SSW,213,5.0,14.0,67,0.00,,,0.00,Wunderground v.1.13,2013-10-25 16:40:00,
2013-10-25 10:45:00,47.9,37.1,30.10,South,180,4.0,4.0,66,0.00,,,0.00,Wunderground v.1.13,2013-10-25 16:45:00,
2013-10-25 10:50:00,48.3,37.1,30.09,WSW,244,3.0,3.0,65,0.00,,,0.00,Wunderground v.1.13,2013-10-25 16:50:00,
2013-10-25 10:55:00,48.6,37.0,30.09,SW,229,3.0,14.0,64,0.00,,,0.00,Wunderground v.1.13,2013-10-25 16:55:00,
2013-10-25 11:00:00,49.1,37.4,30.09,SSW,209,3.0,3.0,64,0.00,,,0.00,Wunderground v.1.13,2013-10-25 17:00:00,
2013-10-25 11:05:00,49.2,37.5,30.08,SSW,205,3.0,3.0,64,0.00,,,0.00,Wunderground v.1.13,2013-10-25 17:05:00,
2013-10-25 11:10:00,49.5,37.0,30.08,SSW,202,3.0,14.0,62,0.00,,,0.00,Wunderground v.1.13,2013-10-25 17:10:00,
2013-10-25 11:15:00,49.9,37.4,30.08,SSW,211,3.0,3.0,62,0.00,,,0.00,Wunderground v.1.13,2013-10-25 17:15:00,
2013-10-25 11:20:00,50.5,37.5,30.08,SW,222,3.0,14.0,61,0.00,,,0.00,Wunderground v.1.13,2013-10-25 17:20:00,
2013-10-25 11:25:00,51.4,38.4,30.08,SSW,207,2.0,2.0,61,0.00,,,0.00,Wunderground v.1.13,2013-10-25 17:25:00,
2013-10-25 11:30:00,51.9,37.6,30.08,SSW,211,1.0,1.0,58,0.00,,,0.00,Wunderground v.1.13,2013-10-25 17:30:00,
2013-10-25 11:35:00,51.9,38.0,30.07,SW,221,3.0,3.0,59,0.00,,,0.00,Wunderground v.1.13,2013-10-25 17:35:00,
2013-10-25 11:40:00,51.6,37.7,30.07,South,186,5.0,5.0,59,0.00,,,0.00,Wunderground v.1.13,2013-10-25 17:40:00,
2013-10-25 11:45:00,51.7,37.4,30.07,SW,230,4.0,4.0,58,0.00,,,0.00,Wunderground v.1.13,2013-10-25 17:45:00,
2013-10-25 11:50:00,52.2,37.9,30.05,SW,232,3.0,3.0,58,0.00,,,0.00,Wunderground v.1.13,2013-10-25 17:50:00,
2013-10-25 11:55:00,52.8,38.0,30.05,South,180,2.0,2.0,57,0.00,,,0.00,Wunderground v.1.13,2013-10-25 17:55:00,
2013-10-25 12:00:00,53.6,38.7,30.05,SSE,167,1.0,1.0,57,0.00,,,0.00,Wunderground v.1.13,2013-10-25 18:00:00,
2013-10-25 12:05:00,53.6,37.8,30.04,SSE,147,1.0,1.0,55,0.00,,,0.00,Wunderground v.1.13,2013-10-25 18:05:00,
2013-10-25 12:10:00,54.2,38.4,30.04,South,184,2.0,2.0,55,0.00,,,0.00,Wunderground v.1.13,2013-10-25 18:10:00,
2013-10-25 12:15:00,54.7,38.4,30.04,South,189,2.0,2.0,54,0.00,,,0.00,Wunderground v.1.13,2013-10-25 18:15:00,
2013-10-25 12:20:00,55.1,38.7,30.04,South,173,3.0,3.0,54,0.00,,,0.00,Wunderground v.1.13,2013-10-25 18:20:00,
2013-10-25 12:25:00,55.9,39.0,30.04,South,182,2.0,2.0,53,0.00,,,0.00,Wunderground v.1.13,2013-10-25 18:25:00,
2013-10-25 12:30:00,56.3,38.4,30.04,South,190,1.0,1.0,51,0.00,,,0.00,Wunderground v.1.13,2013-10-25 18:30:00,
2013-10-25 12:35:00,56.7,39.3,30.02,SSE,165,1.0,1.0,52,0.00,,,0.00,Wunderground v.1.13,2013-10-25 18:35:00,
2013-10-25 12:40:00,57.0,38.5,30.02,SSW,197,0.0,14.0,50,0.00,,,0.00,Wunderground v.1.13,2013-10-25 18:40:00,
2013-10-25 12:45:00,56.9,38.4,30.02,SSW,200,2.0,2.0,50,0.00,,,0.00,Wunderground v.1.13,2013-10-25 18:45:00,
2013-10-25 12:50:00,57.5,38.5,30.01,SSW,203,3.0,14.0,49,0.00,,,0.00,Wunderground v.1.13,2013-10-25 18:50:00,
2013-10-25 12:55:00,57.6,39.1,30.01,SSW,194,1.0,1.0,50,0.00,,,0.00,Wunderground v.1.13,2013-10-25 18:55:00,
2013-10-25 13:00:00,58.3,39.2,30.01,SSE,155,1.0,1.0,49,0.00,,,0.00,Wunderground v.1.13,2013-10-25 19:00:00,
2013-10-25 13:05:00,58.9,38.7,30.00,SSW,196,1.0,1.0,47,0.00,,,0.00,Wunderground v.1.13,2013-10-25 19:05:00,
2013-10-25 13:10:00,58.9,39.2,30.00,SSW,198,1.0,1.0,48,0.00,,,0.00,Wunderground v.1.13,2013-10-25 19:10:00,
2013-10-25 13:15:00,59.0,38.2,30.00,SSE,162,1.0,14.0,46,0.00,,,0.00,Wunderground v.1.13,2013-10-25 19:15:00,
2013-10-25 13:20:00,59.5,39.2,29.99,SSE,165,1.0,1.0,47,0.00,,,0.00,Wunderground v.1.13,2013-10-25 19:20:00,
2013-10-25 13:25:00,60.1,38.7,29.99,SW,230,2.0,2.0,45,0.00,,,0.00,Wunderground v.1.13,2013-10-25 19:25:00,
2013-10-25 13:30:00,60.4,38.9,29.99,South,169,1.0,1.0,45,0.00,,,0.00,Wunderground v.1.13,2013-10-25 19:30:00,
2013-10-25 13:35:00,60.7,38.6,29.98,SSE,167,1.0,1.0,44,0.00,,,0.00,Wunderground v.1.13,2013-10-25 19:35:00,
2013-10-25 13:40:00,61.2,39.1,29.98,SW,221,2.0,14.0,44,0.00,,,0.00,Wunderground v.1.13,2013-10-25 19:40:00,
2013-10-25 13:45:00,61.6,39.5,29.98,SSW,202,2.0,14.0,44,0.00,,,0.00,Wunderground v.1.13,2013-10-25 19:45:00,
2013-10-25 13:50:00,61.3,38.6,29.97,SSW,198,2.0,2.0,43,0.00,,,0.00,Wunderground v.1.13,2013-10-25 19:50:00,
2013-10-25 13:55:00,61.6,38.9,29.97,South,172,1.0,1.0,43,0.00,,,0.00,Wunderground v.1.13,2013-10-25 19:55:00,
2013-10-25 14:00:00,62.6,39.2,29.97,SSW,213,1.0,1.0,42,0.00,,,0.00,Wunderground v.1.13,2013-10-25 20:00:00,
2013-10-25 14:05:00,62.9,38.8,29.97,SSE,148,1.0,1.0,41,0.00,,,0.00,Wunderground v.1.13,2013-10-25 20:05:00,
2013-10-25 14:10:00,62.6,38.6,29.97,South,176,1.0,14.0,41,0.00,,,0.00,Wunderground v.1.13,2013-10-25 20:10:00,
2013-10-25 14:15:00,62.7,38.6,29.97,South,191,1.0,1.0,41,0.00,,,0.00,Wunderground v.1.13,2013-10-25 20:15:00,
2013-10-25 14:20:00,63.2,38.5,29.96,WSW,251,1.0,1.0,40,0.00,,,0.00,Wunderground v.1.13,2013-10-25 20:20:00,
2013-10-25 14:25:00,63.2,38.5,29.96,SSE,165,1.0,1.0,40,0.00,,,0.00,Wunderground v.1.13,2013-10-25 20:25:00,
2013-10-25 14:30:00,63.4,38.6,29.96,WSW,238,1.0,1.0,40,0.00,,,0.00,Wunderground v.1.13,2013-10-25 20:30:00,
2013-10-25 14:35:00,64.2,38.7,29.95,SSW,204,1.0,1.0,39,0.00,,,0.00,Wunderground v.1.13,2013-10-25 20:35:00,
2013-10-25 14:40:00,64.7,39.2,29.95,South,186,0.0,14.0,39,0.00,,,0.00,Wunderground v.1.13,2013-10-25 20:40:00,
2013-10-25 14:45:00,64.8,38.6,29.95,WSW,238,1.0,1.0,38,0.00,,,0.00,Wunderground v.1.13,2013-10-25 20:45:00,
2013-10-25 14:50:00,64.8,39.9,29.95,SW,216,1.0,1.0,40,0.00,,,0.00,Wunderground v.1.13,2013-10-25 20:50:00,
2013-10-25 14:55:00,65.3,39.0,29.95,SSW,200,0.0,14.0,38,0.00,,,0.00,Wunderground v.1.13,2013-10-25 20:55:00,
2013-10-25 15:00:00,65.2,38.3,29.95,SW,215,0.0,14.0,37,0.00,,,0.00,Wunderground v.1.13,2013-10-25 21:00:00,
2013-10-25 15:05:00,65.8,39.5,29.94,SW,219,0.0,14.0,38,0.00,,,0.00,Wunderground v.1.13,2013-10-25 21:05:00,
2013-10-25 15:10:00,65.6,38.6,29.94,SSW,202,0.0,14.0,37,0.00,,,0.00,Wunderground v.1.13,2013-10-25 21:10:00,
2013-10-25 15:15:00,65.8,38.8,29.94,SW,215,0.0,14.0,37,0.00,,,0.00,Wunderground v.1.13,2013-10-25 21:15:00,
2013-10-25 15:20:00,66.1,39.1,29.94,SSW,205,0.0,14.0,37,0.00,,,0.00,Wunderground v.1.13,2013-10-25 21:20:00,
2013-10-25 15:25:00,66.3,38.5,29.94,SW,217,0.0,14.0,36,0.00,,,0.00,Wunderground v.1.13,2013-10-25 21:25:00,
2013-10-25 15:30:00,66.6,39.5,29.94,SSE,157,0.0,14.0,37,0.00,,,0.00,Wunderground v.1.13,2013-10-25 21:30:00,
2013-10-25 15:35:00,66.3,38.5,29.93,SSW,200,1.0,1.0,36,0.00,,,0.00,Wunderground v.1.13,2013-10-25 21:35:00,
2013-10-25 15:40:00,66.4,38.6,29.93,SW,233,1.0,1.0,36,0.00,,,0.00,Wunderground v.1.13,2013-10-25 21:40:00,
2013-10-25 15:45:00,66.4,38.6,29.93,SSW,202,0.0,14.0,36,0.00,,,0.00,Wunderground v.1.13,2013-10-25 21:45:00,
2013-10-25 15:50:00,66.3,38.5,29.93,SW,236,1.0,14.0,36,0.00,,,0.00,Wunderground v.1.13,2013-10-25 21:50:00,
2013-10-25 15:55:00,66.9,38.3,29.93,SSW,205,1.0,1.0,35,0.00,,,0.00,Wunderground v.1.13,2013-10-25 21:55:00,
2013-10-25 16:00:00,66.8,38.3,29.93,WSW,248,0.0,14.0,35,0.00,,,0.00,Wunderground v.1.13,2013-10-25 22:00:00,
2013-10-25 16:05:00,66.6,38.1,29.93,SSW,192,0.0,14.0,35,0.00,,,0.00,Wunderground v.1.13,2013-10-25 22:05:00,
2013-10-25 16:10:00,66.9,38.3,29.93,SW,231,1.0,1.0,35,0.00,,,0.00,Wunderground v.1.13,2013-10-25 22:10:00,
2013-10-25 16:15:00,66.9,38.3,29.93,SSW,211,1.0,1.0,35,0.00,,,0.00,Wunderground v.1.13,2013-10-25 22:15:00,
2013-10-25 16:20:00,67.1,38.5,29.92,WSW,247,0.0,14.0,35,0.00,,,0.00,Wunderground v.1.13,2013-10-25 22:20:00,
2013-10-25 16:25:00,67.4,38.8,29.92,WSW,248,0.0,14.0,35,0.00,,,0.00,Wunderground v.1.13,2013-10-25 22:25:00,
2013-10-25 16:30:00,67.4,38.8,29.92,WSW,248,0.0,14.0,35,0.00,,,0.00,Wunderground v.1.13,2013-10-25 22:30:00,
2013-10-25 16:35:00,67.3,38.7,29.92,WSW,248,0.0,14.0,35,0.00,,,0.00,Wunderground v.1.13,2013-10-25 22:35:00,
2013-10-25 16:40:00,67.3,38.7,29.92,WSW,249,0.0,14.0,35,0.00,,,0.00,Wunderground v.1.13,2013-10-25 22:40:00,
2013-10-25 16:45:00,67.3,38.7,29.92,WSW,242,0.0,14.0,35,0.00,,,0.00,Wunderground v.1.13,2013-10-25 22:45:00,
2013-10-25 16:50:00,67.1,38.5,29.92,SSW,212,0.0,14.0,35,0.00,,,0.00,Wunderground v.1.13,2013-10-25 22:50:00,
2013-10-25 16:55:00,66.9,38.3,29.92,SSW,213,0.0,14.0,35,0.00,,,0.00,Wunderground v.1.13,2013-10-25 22:55:00,
2013-10-25 17:00:00,67.1,38.5,29.92,SSW,213,0.0,14.0,35,0.00,,,0.00,Wunderground v.1.13,2013-10-25 23:00:00,
2013-10-25 17:05:00,66.9,38.3,29.92,SSW,213,0.0,14.0,35,0.00,,,0.00,Wunderground v.1.13,2013-10-25 23:05:00,
2013-10-25 17:10:00,66.6,38.8,29.92,SSW,213,0.0,14.0,36,0.00,,,0.00,Wunderground v.1.13,2013-10-25 23:10:00,
2013-10-25 17:15:00,65.8,38.8,29.92,SSE,167,0.0,14.0,37,0.00,,,0.00,Wunderground v.1.13,2013-10-25 23:15:00,
2013-10-25 17:20:00,64.7,39.2,29.92,SSE,165,0.0,14.0,39,0.00,,,0.00,Wunderground v.1.13,2013-10-25 23:20:00,
2013-10-25 17:25:00,63.9,39.1,29.92,SSE,165,0.0,14.0,40,0.00,,,0.00,Wunderground v.1.13,2013-10-25 23:25:00,
2013-10-25 17:30:00,63.4,39.3,29.92,SSE,165,0.0,14.0,41,0.00,,,0.00,Wunderground v.1.13,2013-10-25 23:30:00,
2013-10-25 17:35:00,62.7,39.3,29.92,SSE,165,0.0,14.0,42,0.00,,,0.00,Wunderground v.1.13,2013-10-25 23:35:00,
2013-10-25 17:40:00,62.3,39.5,29.92,SSE,165,0.0,14.0,43,0.00,,,0.00,Wunderground v.1.13,2013-10-25 23:40:00,
2013-10-25 17:45:00,61.6,39.5,29.92,SSE,165,0.0,14.0,44,0.00,,,0.00,Wunderground v.1.13,2013-10-25 23:45:00,
2013-10-25 17:50:00,60.9,38.8,29.93,SSE,165,0.0,14.0,44,0.00,,,0.00,Wunderground v.1.13,2013-10-25 23:50:00,
2013-10-25 17:55:00,60.1,39.2,29.93,SSE,165,0.0,14.0,46,0.00,,,0.00,Wunderground v.1.13,2013-10-25 23:55:00,
2013-10-25 18:00:00,59.3,39.6,29.93,SSE,165,0.0,14.0,48,0.00,,,0.00,Wunderground v.1.13,2013-10-26 00:00:00,
2013-10-25 18:05:00,58.4,39.8,29.93,SSE,165,0.0,14.0,50,0.00,,,0.00,Wunderground v.1.13,2013-10-26 00:05:00,
2013-10-25 18:10:00,57.3,39.3,29.93,SSE,165,0.0,14.0,51,0.00,,,0.00,Wunderground v.1.13,2013-10-26 00:10:00,
2013-10-25 18:15:00,56.7,39.3,29.93,SSE,165,0.0,14.0,52,0.00,,,0.00,Wunderground v.1.13,2013-10-26 00:15:00,
2013-10-25 18:20:00,56.2,39.3,29.93,SSE,165,0.0,14.0,53,0.00,,,0.00,Wunderground v.1.13,2013-10-26 00:20:00,
2013-10-25 18:25:00,55.3,38.9,29.93,SSE,165,0.0,14.0,54,0.00,,,0.00,Wunderground v.1.13,2013-10-26 00:25:00,
2013-10-25 18:30:00,54.5,38.7,29.93,SSE,165,0.0,14.0,55,0.00,,,0.00,Wunderground v.1.13,2013-10-26 00:30:00,
2013-10-25 18:35:00,53.9,39.0,29.94,SSE,165,0.0,14.0,57,0.00,,,0.00,Wunderground v.1.13,2013-10-26 00:35:00,
2013-10-25 18:40:00,53.2,38.4,29.94,SSE,165,0.0,14.0,57,0.00,,,0.00,Wunderground v.1.13,2013-10-26 00:40:00,
2013-10-25 18:45:00,52.6,38.2,29.94,SSE,165,0.0,14.0,58,0.00,,,0.00,Wunderground v.1.13,2013-10-26 00:45:00,
2013-10-25 18:50:00,52.0,38.1,29.95,SSE,165,0.0,14.0,59,0.00,,,0.00,Wunderground v.1.13,2013-10-26 00:50:00,
2013-10-25 18:55:00,51.4,38.0,29.95,SSE,165,0.0,14.0,60,0.00,,,0.00,Wunderground v.1.13,2013-10-26 00:55:00,
2013-10-25 19:00:00,50.8,37.8,29.95,SSE,165,0.0,14.0,61,0.00,,,0.00,Wunderground v.1.13,2013-10-26 01:00:00,
2013-10-25 19:05:00,50.4,37.9,29.95,SSE,165,0.0,14.0,62,0.00,,,0.00,Wunderground v.1.13,2013-10-26 01:05:00,
2013-10-25 19:10:00,49.8,37.7,29.95,SSE,165,0.0,14.0,63,0.00,,,0.00,Wunderground v.1.13,2013-10-26 01:10:00,
2013-10-25 19:15:00,49.2,37.5,29.95,SSE,165,0.0,14.0,64,0.00,,,0.00,Wunderground v.1.13,2013-10-26 01:15:00,
2013-10-25 19:20:00,48.6,37.4,29.95,SSE,165,0.0,14.0,65,0.00,,,0.00,Wunderground v.1.13,2013-10-26 01:20:00,
2013-10-25 19:25:00,48.2,37.4,29.95,SSE,165,0.0,14.0,66,0.00,,,0.00,Wunderground v.1.13,2013-10-26 01:25:00,
2013-10-25 19:30:00,47.7,37.3,29.95,SSE,165,0.0,14.0,67,0.00,,,0.00,Wunderground v.1.13,2013-10-26 01:30:00,
2013-10-25 19:35:00,47.3,36.9,29.95,SSE,165,0.0,14.0,67,0.00,,,0.00,Wunderground v.1.13,2013-10-26 01:35:00,
2013-10-25 19:40:00,46.7,36.3,29.95,SSE,165,0.0,14.0,67,0.00,,,0.00,Wunderground v.1.13,2013-10-26 01:40:00,
2013-10-25 19:45:00,46.2,36.2,29.95,SSE,165,0.0,14.0,68,0.00,,,0.00,Wunderground v.1.13,2013-10-26 01:45:00,
2013-10-25 19:50:00,46.0,36.4,29.96,SSE,165,0.0,14.0,69,0.00,,,0.00,Wunderground v.1.13,2013-10-26 01:50:00,
2013-10-25 19:55:00,45.7,36.5,29.96,SSE,165,0.0,14.0,70,0.00,,,0.00,Wunderground v.1.13,2013-10-26 01:55:00,
2013-10-25 20:00:00,45.5,36.3,29.96,SSE,165,0.0,14.0,70,0.00,,,0.00,Wunderground v.1.13,2013-10-26 02:00:00,
2013-10-25 20:05:00,45.4,36.5,29.97,SSE,165,0.0,14.0,71,0.00,,,0.00,Wunderground v.1.13,2013-10-26 02:05:00,
2013-10-25 20:10:00,45.2,36.4,29.97,SSE,165,0.0,14.0,71,0.00,,,0.00,Wunderground v.1.13,2013-10-26 02:10:00,
2013-10-25 20:15:00,45.1,36.6,29.97,SSE,165,0.0,14.0,72,0.00,,,0.00,Wunderground v.1.13,2013-10-26 02:15:00,
2013-10-25 20:20:00,44.9,36.4,29.97,SSE,165,0.0,14.0,72,0.00,,,0.00,Wunderground v.1.13,2013-10-26 02:20:00,
2013-10-25 20:25:00,44.8,36.3,29.97,SSE,165,0.0,14.0,72,0.00,,,0.00,Wunderground v.1.13,2013-10-26 02:25:00,
2013-10-25 20:30:00,44.5,36.4,29.97,SSE,165,0.0,14.0,73,0.00,,,0.00,Wunderground v.1.13,2013-10-26 02:30:00,
2013-10-25 20:35:00,44.2,36.1,29.97,SSE,165,0.0,14.0,73,0.00,,,0.00,Wunderground v.1.13,2013-10-26 02:35:00,
2013-10-25 20:40:00,43.9,35.8,29.97,SSE,165,0.0,14.0,73,0.00,,,0.00,Wunderground v.1.13,2013-10-26 02:40:00,
2013-10-25 20:45:00,43.5,35.4,29.97,SSE,165,0.0,14.0,73,0.00,,,0.00,Wunderground v.1.13,2013-10-26 02:45:00,
2013-10-25 20:50:00,43.1,35.4,29.97,SSE,165,0.0,14.0,74,0.00,,,0.00,Wunderground v.1.13,2013-10-26 02:50:00,
2013-10-25 20:55:00,42.8,35.4,29.97,SSE,165,0.0,14.0,75,0.00,,,0.00,Wunderground v.1.13,2013-10-26 02:55:00,
2013-10-25 21:00:00,42.5,35.1,29.97,SSE,165,0.0,14.0,75,0.00,,,0.00,Wunderground v.1.13,2013-10-26 03:00:00,
2013-10-25 21:05:00,42.2,35.2,29.98,SSE,165,0.0,14.0,76,0.00,,,0.00,Wunderground v.1.13,2013-10-26 03:05:00,
2013-10-25 21:10:00,42.1,35.4,29.98,SSE,165,0.0,14.0,77,0.00,,,0.00,Wunderground v.1.13,2013-10-26 03:10:00,
2013-10-25 21:15:00,41.9,35.2,29.98,SSE,165,0.0,14.0,77,0.00,,,0.00,Wunderground v.1.13,2013-10-26 03:15:00,
2013-10-25 21:20:00,41.8,35.1,29.98,SSE,165,0.0,14.0,77,0.00,,,0.00,Wunderground v.1.13,2013-10-26 03:20:00,
2013-10-25 21:25:00,41.8,35.4,29.98,SSE,165,0.0,14.0,78,0.00,,,0.00,Wunderground v.1.13,2013-10-26 03:25:00,
2013-10-25 21:30:00,41.8,35.4,29.98,SSE,165,0.0,14.0,78,0.00,,,0.00,Wunderground v.1.13,2013-10-26 03:30:00,
2013-10-25 21:35:00,41.9,35.9,29.99,SSE,165,0.0,14.0,79,0.00,,,0.00,Wunderground v.1.13,2013-10-26 03:35:00,
2013-10-25 21:40:00,42.3,35.9,29.99,SSE,165,0.0,14.0,78,0.00,,,0.00,Wunderground v.1.13,2013-10-26 03:40:00,
2013-10-25 21:45:00,42.3,35.9,29.99,SSE,165,0.0,14.0,78,0.00,,,0.00,Wunderground v.1.13,2013-10-26 03:45:00,
2013-10-25 21:50:00,42.2,35.8,30.00,SSE,165,0.0,14.0,78,0.00,,,0.00,Wunderground v.1.13,2013-10-26 03:50:00,
2013-10-25 21:55:00,42.5,36.4,30.00,SSE,168,0.0,14.0,79,0.00,,,0.00,Wunderground v.1.13,2013-10-26 03:55:00,
2013-10-25 22:00:00,43.1,36.7,30.00,SSE,168,0.0,14.0,78,0.00,,,0.00,Wunderground v.1.13,2013-10-26 04:00:00,
2013-10-25 22:05:00,43.1,36.4,30.00,SSE,168,0.0,14.0,77,0.00,,,0.00,Wunderground v.1.13,2013-10-26 04:05:00,
2013-10-25 22:10:00,42.8,36.4,30.00,SSE,168,0.0,14.0,78,0.00,,,0.00,Wunderground v.1.13,2013-10-26 04:10:00,
2013-10-25 22:15:00,42.6,36.2,30.00,SSE,168,0.0,14.0,78,0.00,,,0.00,Wunderground v.1.13,2013-10-26 04:15:00,
2013-10-25 22:20:00,42.5,36.8,30.00,WNW,300,0.0,14.0,80,0.00,,,0.00,Wunderground v.1.13,2013-10-26 04:20:00,
2013-10-25 22:25:00,43.3,38.2,30.00,NW,311,0.0,14.0,82,0.00,,,0.00,Wunderground v.1.13,2013-10-26 04:25:00,
2013-10-25 22:30:00,43.6,38.5,30.00,NW,311,0.0,14.0,82,0.00,,,0.00,Wunderground v.1.13,2013-10-26 04:30:00,
2013-10-25 22:35:00,43.6,38.5,30.01,NW,309,0.0,14.0,82,0.00,,,0.00,Wunderground v.1.13,2013-10-26 04:35:00,
2013-10-25 22:40:00,43.5,38.7,30.01,NW,309,0.0,14.0,83,0.00,,,0.00,Wunderground v.1.13,2013-10-26 04:40:00,
2013-10-25 22:45:00,43.3,38.5,30.01,NW,309,0.0,14.0,83,0.00,,,0.00,Wunderground v.1.13,2013-10-26 04:45:00,
2013-10-25 22:50:00,43.5,39.0,30.01,NW,309,0.0,14.0,84,0.00,,,0.00,Wunderground v.1.13,2013-10-26 04:50:00,
2013-10-25 22:55:00,43.8,39.3,30.01,NW,309,0.0,14.0,84,0.00,,,0.00,Wunderground v.1.13,2013-10-26 04:55:00,
2013-10-25 23:00:00,44.3,39.5,30.01,NW,311,0.0,14.0,83,0.00,,,0.00,Wunderground v.1.13,2013-10-26 05:00:00,
2013-10-25 23:05:00,44.9,39.4,30.01,NW,325,0.0,14.0,81,0.00,,,0.00,Wunderground v.1.13,2013-10-26 05:05:00,
2013-10-25 23:15:00,45.7,39.6,30.01,NNW,328,2.0,2.0,79,0.00,,,0.00,Wunderground v.1.13,2013-10-26 05:15:00,
2013-10-25 23:20:00,45.8,39.3,30.01,NW,323,2.0,2.0,78,0.00,,,0.00,Wunderground v.1.13,2013-10-26 05:20:00,
2013-10-25 23:25:00,46.1,39.3,30.01,NNW,328,0.0,14.0,77,0.00,,,0.00,Wunderground v.1.13,2013-10-26 05:25:00,
2013-10-25 23:30:00,46.4,39.2,30.01,NW,325,2.0,2.0,76,0.00,,,0.00,Wunderground v.1.13,2013-10-26 05:30:00,
2013-10-25 23:40:00,46.4,39.2,30.01,NW,326,0.0,14.0,76,0.00,,,0.00,Wunderground v.1.13,2013-10-26 05:40:00,
2013-10-25 23:45:00,46.4,38.9,30.01,NNW,329,0.0,14.0,75,0.00,,,0.00,Wunderground v.1.13,2013-10-26 05:45:00,
2013-10-25 23:50:00,46.5,39.0,30.02,NNW,343,0.0,14.0,75,0.00,,,0.00,Wunderground v.1.13,2013-10-26 05:50:00,
2013-10-25 23:55:00,47.1,39.2,30.02,North,360,0.0,14.0,74,0.00,,,0.00,Wunderground v.1.13,2013-10-26 05:55:00,